Sacramento International, CA

5:39 AM PDT on August 17, 2017 (GMT -0700)
Sacramento International

Weather History for KSMF - November, 2012

Change the Weather History Date:

Thursday, November 1, 2012

  Actual Average Record
Temperature  
Mean Temperature 64 °F -  
Max Temperature 70 °F 71 °F 87 °F (1960)
Min Temperature 54 °F 45 °F 33 °F (2003)
Degree Days  
Heating Degree Days 2    
Growing Degree Days 14 (Base 50)    
Moisture  
Dew Point 56 °F    
Average Humidity 86    
Maximum Humidity 100    
Minimum Humidity 57    
Precipitation  
Precipitation 0.08 in - - ()
Sea Level Pressure  
Sea Level Pressure 30.01 in    
Wind  
Wind Speed 4 mph (SSE)    
Max Wind Speed 8 mph    
Max Gust Speed -    
Visibility 8 miles    
Events Rain    
Averages and records for this station are not official NWS values.
T = Trace of Precipitation, MM = Missing Value Source: NWS Daily Summary

Daily Weather History Graph

Daily Weather History Graph

Search for Another Location

Airport or City:

Trip Planner

Search our weather history database for the weather conditions in past years. The results will help you decide how hot, cold, wet, or windy it might be!

Date:

Astronomy

Nov. 01, 2012 Rise Set
Actual Time 7:33 AM PDT 6:05 PM PDT
Civil Twilight 7:06 AM PDT 6:33 PM PDT
Nautical Twilight 6:34 AM PDT 7:04 PM PDT
Astronomical Twilight 6:03 AM PDT 7:35 PM PDT
Moon 8:08 PM PDT (11/1) 10:09 AM PDT (11/1)
Length of Visible Light 11h 26m
Length of Day
10h 31m
Waning Gibbous, 92% of the Moon is Illuminated
Nov 1
Waning Gibbous
Nov 6
Last Quarter
Nov 13
New
Nov 20
First Quarter
Nov 28
Full

Hourly Weather History & Observations

Time (PDT) Temp. Dew Point Humidity Pressure Visibility Wind Dir Wind Speed Gust Speed Precip Events Conditions
12:53 AM 59.0 °F 57.9 °F 96% 30.00 in 6.0 mi SE 3.5 mph - 0.07 in Rain Rain
1:53 AM 59.0 °F 57.2 °F 94% 30.00 in 6.0 mi SSE 5.8 mph - N/A Rain Light Rain
2:53 AM 59.0 °F 57.9 °F 96% 30.00 in 6.0 mi SSE 5.8 mph - 0.01 in   Overcast
2:58 AM 59.0 °F 57.2 °F 94% 30.00 in 3.0 mi SSE 4.6 mph - N/A   Overcast
3:05 AM 59.0 °F 57.2 °F 94% 30.00 in 2.0 mi SE 4.6 mph - N/A   Overcast
3:53 AM 59.0 °F 57.9 °F 96% 29.99 in 2.0 mi SE 5.8 mph - N/A   Overcast
4:53 AM 59.0 °F 57.2 °F 94% 30.00 in 5.0 mi SE 4.6 mph - N/A   Overcast
5:53 AM 59.0 °F 57.9 °F 96% 30.00 in 6.0 mi ESE 5.8 mph - N/A   Overcast
6:53 AM 59.0 °F 57.9 °F 96% 30.00 in 9.0 mi SE 5.8 mph - N/A   Overcast
7:37 AM 59.0 °F 57.2 °F 94% 30.00 in 10.0 mi SE 6.9 mph - N/A   Scattered Clouds
7:53 AM 57.9 °F 57.0 °F 97% 30.01 in 10.0 mi SE 8.1 mph - N/A   Mostly Cloudy
7:59 AM 57.2 °F 57.2 °F 100% 30.00 in 10.0 mi SE 6.9 mph - N/A   Mostly Cloudy
8:53 AM 59.0 °F 57.9 °F 96% 30.02 in 10.0 mi SSE 5.8 mph - N/A   Mostly Cloudy
9:53 AM 60.1 °F 57.0 °F 90% 30.03 in 10.0 mi South 4.6 mph - N/A   Mostly Cloudy
10:34 AM 60.8 °F 57.2 °F 88% 30.04 in 10.0 mi South 5.8 mph - N/A   Mostly Cloudy
10:53 AM 60.8 °F 57.2 °F 88% 30.03 in 10.0 mi South 4.6 mph - N/A   Mostly Cloudy
11:29 AM 62.6 °F 57.2 °F 82% 30.04 in 10.0 mi SSE 3.5 mph - N/A   Partly Cloudy
11:53 AM 64.0 °F 57.9 °F 80% 30.03 in 10.0 mi SSW 3.5 mph - N/A   Partly Cloudy
12:53 PM 64.9 °F 57.0 °F 75% 30.02 in 10.0 mi Calm Calm - N/A   Partly Cloudy
1:53 PM 66.2 °F 55.4 °F 68% 30.01 in 10.0 mi Calm Calm - N/A   Scattered Clouds
2:53 PM 66.9 °F 55.0 °F 66% 30.00 in 10.0 mi Calm Calm - N/A   Scattered Clouds
3:53 PM 70.0 °F 55.0 °F 59% 30.00 in 10.0 mi Calm Calm - N/A   Partly Cloudy
4:53 PM 69.1 °F 53.1 °F 57% 30.00 in 10.0 mi WSW 3.5 mph - N/A   Partly Cloudy
5:53 PM 66.9 °F 53.1 °F 61% 30.00 in 10.0 mi Calm Calm - N/A   Clear
6:53 PM 59.0 °F 53.1 °F 81% 30.01 in 10.0 mi Calm Calm - N/A   Clear
7:53 PM 59.0 °F 53.1 °F 81% 30.01 in 10.0 mi Calm Calm - N/A   Clear
8:53 PM 57.9 °F 53.1 °F 84% 30.01 in 10.0 mi NW 4.6 mph - N/A   Clear
9:53 PM 57.0 °F 54.0 °F 89% 30.02 in 10.0 mi NNW 3.5 mph - N/A   Clear
10:53 PM 54.0 °F 53.1 °F 97% 30.03 in 10.0 mi WNW 4.6 mph - N/A   Clear